Location: Il Ritiro
(43.4167°N, 13.1333°E)
Time: 15:44:15
(UTC+00:00)

Gblst 52 Del rocket - Pass Details

Date: 05 July 2020
Orbit: 805 x 1366 km, 51.5° (Epoch: 10 August)

Event Time Altitude Azimuth Distance (km) Brightness Sun altitude
Rises 21:08:04 0° 301° (WNW) 3,365 8.4 -18.0°
Reaches altitude 10° 21:10:28 10° 304° (WNW) 2,468 7.6 -18.2°
Maximum altitude 21:16:13 72° 29° (NNE) 954 4.5 -18.7°
Enters shadow 21:20:34 21° 110° (ESE) 2,009 5.7 -19.1°
